This demonstration page uses our WeatherBlox Daily Observations layout. Learn more.

Left ArrowRight Arrow

Hourly Observations for April 2, 2022

Temp ( °F °C ) Dew Point ( °F °C ) Humidity (%) Winds ( mph kmh ) Pressure ( in mb ) Visibility ( mi km ) Precip ( " mm )
12:53 am 00:53 Clear 36 2.2 27 -2.8 70 70 NNW 12 19 29.96 1015 10 16 0.00 0.00
1:53 am 01:53 Clear 36 2.2 28 -2.2 73 73 NW 9 15 30.00 1016 10 16 0.00 0.00
2:53 am 02:53 Clear 32 0 27 -2.8 82 82 NW 9 15 30.02 1017 10 16 0.00 0.00
3:53 am 03:53 Clear 31 -0.6 26 -3.3 82 82 WNW 12 19 30.05 1018 10 16 0.00 0.00
4:53 am 04:53 Clear 30 -1.1 26 -3.3 85 85 WNW 9 15 30.06 1018 10 16 0.00 0.00
5:53 am 05:53 Mostly Cloudy 30 -1.1 27 -2.8 88 88 WNW 7 11 30.08 1019 10 16 0.00 0.00
6:53 am 06:53 Mostly Cloudy 31 -0.6 28 -2.2 89 89 WNW 7 11 30.09 1019 10 16 0.00 0.00
7:53 am 07:53 Mostly Sunny 33 0.6 30 -1.1 89 89 NW 9 15 30.11 1020 10 16 0.00 0.00
8:53 am 08:53 Sunny 41 5 33 0.6 73 73 NNW 13 20 30.12 1020 10 16 0.00 0.00
9:53 am 09:53 Sunny 47 8.3 32 0 56 56 N 15 24 30.13 1020 10 16 0.00 0.00
10:53 am 10:53 Sunny 52 11.1 30 -1.1 43 43 NNW 12 19 30.14 1021 10 16 0.00 0.00
11:53 am 11:53 Sunny 54 12.2 28 -2.2 37 37 NNW 14 22 30.13 1020 10 16 0.00 0.00
12:53 pm 12:53 Sunny 56 13.3 25 -3.9 30 30 NNW 10 17 30.11 1020 10 16 0.00 0.00
1:53 pm 13:53 Sunny 59 15 23 -5 25 25 NNW 6 9 30.09 1019 10 16 0.00 0.00
2:53 pm 14:53 Sunny 62 16.7 23 -5 22 22 NW 17 28 30.07 1018 10 16 0.00 0.00
3:53 pm 15:53 Sunny 62 16.7 24 -4.4 23 23 WNW 12 19 30.04 1017 10 16 0.00 0.00
4:53 pm 16:53 Sunny 63 17.2 25 -3.9 24 24 Calm 30.02 1017 10 16 0.00 0.00
5:53 pm 17:53 Sunny 62 16.7 24 -4.4 23 23 VRB 5 7 30.01 1016 10 16 0.00 0.00
6:53 pm 18:53 Sunny 62 16.7 23 -5 22 22 Calm 30.00 1016 10 16 0.00 0.00
7:53 pm 19:53 Sunny 58 14.4 25 -3.9 28 28 SSE 5 7 29.99 1016 10 16 0.00 0.00
8:53 pm 20:53 Clear 53 11.7 26 -3.3 35 35 SSE 6 9 30.00 1016 10 16 0.00 0.00
9:53 pm 21:53 Clear 53 11.7 27 -2.8 37 37 SSE 8 13 29.99 1016 10 16 0.00 0.00
10:53 pm 22:53 Clear 50 10 28 -2.2 43 43 SSE 8 13 29.98 1015 10 16 0.00 0.00
11:53 pm 23:53 Clear 46 7.8 28 -2.2 50 50 SSE 8 13 29.98 1015 10 16 0.00 0.00

Powered by AerisWeather